[[{"header":{"parameterUnit":"m.s-1","parameterCategory":1,"la1":30.2991,"la2":30.254,"lo1":-89.0895,"lo2":-89.0444,"dy":0.0017,"dx":0.0017,"nx":28,"ny":28,"refTime":"2024-05-29T21:00:00:Z","depth":0,"parameterNumber":2,"parameterNumberName":"U-component_of_WINDS"},"data":[0,0,0,0,0,0,0,0,0,0,0,0,0,0,0,0,0,0,0,0,0,0,0,0,0,0,0,0,0,0,0,0,0,0,0,0,0,0,0,0,0,0,0,0,0,0,0,0,0,0,0,0,0,0,0,0,0,0,-2.4609,-2.4609,0,-2.462,-2.462,-2.462,-2.4572,-2.457,-2.4569,-2.4568,-2.4578,-2.458,-2.4582,0,0,0,0,0,0,0,0,0,0,0,0,0,-2.4547,-2.4548,-2.4609,-2.4609,-2.4609,-2.462,-2.462,-2.462,-2.4572,-2.457,-2.4569,-2.4567,-2.4578,-2.458,-2.4582,0,0,0,0,0,0,0,0,0,0,0,0,0,-2.4567,-2.4549,-2.4609,-2.4586,-2.4585,-2.462,-2.462,-2.462,-2.4572,-2.457,-2.4568,-2.4566,-2.4577,-2.458,-2.4582,-2.464,0,0,-2.4589,-2.459,0,0,0,0,0,0,0,0,-2.4566,-2.457,-2.459,-2.4588,-2.4586,-2.4592,-2.4602,-2.4627,-2.4573,-2.4577,-2.4567,-2.4565,-2.4585,-2.4586,-2.4593,-2.464,-2.4641,-2.459,-2.4591,-2.4592,-2.4593,0,0,0,0,0,0,0,-2.4565,-2.4569,-2.4613,-2.459,-2.4588,-2.4576,-2.4577,-2.4607,-2.4593,-2.4576,-2.4573,-2.4575,-2.4583,-2.4591,-2.4593,-2.4641,-2.459,-2.4592,-2.4593,-2.4594,-2.4736,-2.4738,0,0,0,0,0,0,-2.4566,-2.4568,-2.4613,-2.4614,-2.4571,-2.4579,-2.458,-2.4592,-2.4592,-2.459,-2.4577,-2.4573,-2.4588,-2.459,-2.4593,-2.466,-2.4592,-2.4594,-2.4596,-2.4734,-2.4737,-2.4739,0,0,0,0,0,0,-2.4565,-2.4571,-2.4613,-2.459,-2.4594,-2.4582,-2.4597,-2.4594,-2.4601,-2.4592,-2.459,-2.4587,-2.4586,-2.459,-2.4629,-2.466,-2.4596,-2.4598,-2.4731,-2.4735,-2.4738,-2.4796,0,0,0,0,0,0,-2.4564,-2.4571,-2.4592,-2.4591,-2.4596,-2.4648,-2.4599,-2.4596,-2.4606,-2.46,-2.4601,-2.4599,-2.4585,-2.4625,-2.4631,-2.4662,-2.46,-2.4728,-2.4733,-2.4737,-2.4791,-2.4801,-2.4809,0,0,0,0,0,-2.4562,-2.4608,-2.4594,-2.4599,-2.4622,-2.4649,-2.4652,-2.4635,-2.4608,-2.463,-2.4625,-2.4599,-2.4656,-2.463,-2.4636,-2.4668,-2.4726,-2.4731,-2.4736,-2.4787,-2.4799,-2.4809,0,0,0,0,0,0,-2.4613,-2.4607,-2.4591,-2.4638,-2.4645,-2.4641,-2.4668,-2.4648,-2.4662,-2.4656,-2.4634,-2.4635,-2.4677,-2.4677,-2.4647,-2.4724,-2.4687,-2.4693,-2.4723,-2.4734,-2.4743,-2.4742,-2.4602,0,0,0,0,0,-2.463,-2.4652,-2.4646,-2.4688,-2.4692,-2.468,-2.4691,-2.4677,-2.4683,-2.4685,-2.4682,-2.4689,-2.4708,-2.4721,-2.4739,-2.4791,-2.4791,-2.4817,-2.4826,-2.4833,-2.4839,-2.4867,-2.4878,-2.4756,-2.4756,-2.4756,0,0,-2.4664,-2.4664,-2.4679,-2.4699,-2.4702,-2.4726,-2.4682,-2.4709,-2.4727,-2.4689,-2.4725,-2.4724,-2.473,-2.4776,-2.4796,-2.4777,-2.4873,-2.484,-2.4846,-2.4848,-2.4874,-2.4885,-2.4895,-2.476,-2.4759,-2.4759,0,0,-2.4739,-2.4742,-2.4777,-2.4782,-2.4788,-2.4779,-2.4788,-2.4788,-2.4786,-2.4822,-2.4794,-2.4815,-2.4849,-2.4854,-2.4862,-2.4941,-2.4919,-2.4948,-2.4995,-2.5022,-2.5032,-2.504,-2.5068,-2.5079,-2.4954,-2.4954,-2.4954,0,-2.4782,-2.4816,-2.4798,-2.4827,-2.4836,-2.4804,-2.484,-2.4846,-2.4857,-2.4864,-2.4843,-2.4885,-2.4887,-2.4934,-2.4953,-2.4961,-2.497,-2.4947,-2.5032,-2.504,-2.5048,-2.5074,-2.5085,-2.4957,-2.4957,-2.4956,-2.4956,0,-2.4868,-2.4893,-2.4921,-2.4933,-2.4945,-2.4978,-2.4965,-2.498,-2.4966,-2.496,-2.4997,-2.4999,-2.5016,-2.5026,-2.5012,-2.5072,-2.506,-2.5036,-2.4997,-2.5063,-2.5088,-2.5098,-2.4962,-2.4961,-2.496,-2.4959,0,0,-2.4974,-2.4976,-2.4987,-2.4992,-2.4997,-2.5016,-2.5048,-2.5065,-2.5078,-2.5088,-2.5113,-2.5144,-2.5122,-2.513,-2.5117,-2.5141,-2.5204,-2.5114,-2.5114,-2.513,-2.5269,-2.5287,-2.5299,-2.519,-2.5192,-2.5193,-2.5269,0,-2.5047,-2.51,-2.5085,-2.5139,-2.5161,-2.5132,-2.516,-2.5166,-2.5162,-2.5181,-2.5177,-2.5198,-2.5168,-2.5173,-2.5196,-2.5192,-2.5231,-2.5186,-2.5213,-2.5214,-2.5211,-2.5311,-2.5329,-2.54,-2.5278,-2.528,-2.5281,0,-2.5139,-2.5152,-2.5208,-2.521,-2.5219,-2.5244,-2.5259,-2.5278,-2.5285,-2.528,-2.529,-2.5273,-2.5304,-2.5267,-2.531,-2.5279,-2.529,-2.529,-2.5292,-2.5293,-2.5251,-2.5314,-2.5422,-2.5433,-2.5296,-2.5295,-2.5294,0,-2.521,-2.5242,-2.528,-2.5285,-2.5289,-2.5307,-2.5309,-2.5314,-2.5326,-2.5339,-2.5347,-2.5364,-2.5373,-2.5387,-2.5374,-2.5348,-2.5419,-2.5381,-2.5416,-2.5416,-2.5431,-2.543,-2.5542,-2.544,-2.544,-2.544,-2.5439,0,-2.5292,-2.5327,-2.5311,-2.5335,-2.5373,-2.5357,-2.5396,-2.5395,-2.54,-2.5422,-2.5399,-2.542,-2.5403,-2.5424,-2.5414,-2.5451,-2.5456,-2.5453,-2.545,-2.5454,-2.5455,-2.546,-2.5454,-2.5442,-2.5442,-2.5441,-2.5441,0,-2.5377,-2.5368,-2.5407,-2.5408,-2.5409,-2.5437,-2.5438,-2.5459,-2.5454,-2.5483,-2.5489,-2.5481,-2.5504,-2.5494,-2.5517,-2.5511,-2.5559,-2.555,-2.5556,-2.5553,-2.5589,-2.5586,-2.5707,-2.5722,-2.5612,-2.5613,-2.5614,0,-2.543,-2.5456,-2.546,-2.5474,-2.5478,-2.55,-2.5512,-2.5497,-2.551,-2.5521,-2.5542,-2.5563,-2.5578,-2.5617,-2.5613,-2.5632,-2.5622,-2.5664,-2.5625,-2.5629,-2.5622,-2.562,-2.5623,-2.5671,-2.5672,-2.5673,-2.5674,0,-2.5524,-2.5519,-2.5537,-2.5554,-2.5569,-2.5582,-2.5592,-2.5605,-2.559,-2.5607,-2.563,-2.5643,-2.5668,-2.5689,-2.5706,-2.5708,-2.5689,-2.5687,-2.5696,-2.57,-2.5703,-2.5701,-2.5577,-2.5683,-2.5683,-2.5682,-2.5681,-2.5681,-2.5594,-2.5617,-2.5623,-2.5644,-2.5651,-2.5662,-2.5682,-2.568,-2.5699,-2.5718,-2.5709,-2.5736,-2.5743,-2.5763,-2.5769,-2.579,-2.5774,-2.5787,-2.579,-2.5794,-2.5798,-2.57,-2.5793,-2.5793,-2.5793,-2.5793,-2.5792,0,-2.5687,-2.569,-2.571,-2.5726,-2.5743,-2.5724,-2.5735,-2.5751,-2.5775,-2.5783,-2.58,-2.5827,-2.5848,-2.5847,-2.5866,-2.5883,-2.5875,-2.5889,-2.5887,-2.5888,-2.5812,-2.5802,-2.5895,-2.5895,-2.5895,-2.5895,-2.5895,-2.5895,-2.5737,-2.5774,-2.577,-2.581,-2.5813,-2.5839,-2.5847,-2.5857,-2.5864,-2.5896,-2.5913,-2.5912,-2.5917,-2.5937,-2.5955,-2.5954,-2.5962,-2.5979,-2.5975,-2.5904,-2.5893,-2.5883,-2.5874,-2.5981,-2.5981,-2.6049,-2.605,-2.605]},{"header":{"parameterUnit":"m.s-1","parameterCategory":1,"la1":30.2991,"la2":30.254,"lo1":-89.0895,"lo2":-89.0444,"dy":0.0017,"dx":0.0017,"nx":28,"ny":28,"refTime":"2024-05-29T21:00:00:Z","depth":0,"parameterNumber":3,"parameterNumberName":"V-component_of_WINDS"},"data":[0,0,0,0,0,0,0,0,0,0,0,0,0,0,0,0,0,0,0,0,0,0,0,0,0,0,0,0,0,0,0,0,0,0,0,0,0,0,0,0,0,0,0,0,0,0,0,0,0,0,0,0,0,0,0,0,0,0,2.3709,2.3709,0,2.3716,2.3716,2.3716,2.3719,2.3719,2.3719,2.3719,2.3724,2.3724,2.3725,0,0,0,0,0,0,0,0,0,0,0,0,0,2.3695,2.3695,2.3709,2.3709,2.3709,2.3716,2.3716,2.3716,2.3719,2.3719,2.3719,2.3719,2.3724,2.3724,2.3725,0,0,0,0,0,0,0,0,0,0,0,0,0,2.3702,2.3696,2.3709,2.3711,2.3711,2.3716,2.3716,2.3716,2.3719,2.3719,2.3719,2.3718,2.3724,2.3724,2.3725,2.3727,0,0,2.3726,2.3726,0,0,0,0,0,0,0,0,2.3701,2.3702,2.3711,2.3711,2.3711,2.3717,2.3714,2.372,2.3719,2.3716,2.3719,2.3718,2.3722,2.3722,2.3724,2.3728,2.3728,2.3726,2.3726,2.3726,2.3726,0,0,0,0,0,0,0,2.3701,2.3702,2.3712,2.3711,2.3711,2.3711,2.3712,2.3715,2.3719,2.3716,2.3716,2.3717,2.3722,2.3723,2.3724,2.3728,2.3726,2.3726,2.3726,2.3726,2.3735,2.3735,0,0,0,0,0,0,2.37,2.3701,2.3711,2.3712,2.3706,2.3712,2.3712,2.3715,2.3719,2.3719,2.3717,2.3717,2.3723,2.3723,2.3724,2.3728,2.3726,2.3726,2.3726,2.3735,2.3735,2.3735,0,0,0,0,0,0,2.37,2.3701,2.3711,2.3707,2.3708,2.3712,2.3714,2.3715,2.3717,2.372,2.372,2.3718,2.3723,2.3724,2.3727,2.3728,2.3726,2.3726,2.3735,2.3735,2.3735,2.3735,0,0,0,0,0,0,2.37,2.3701,2.3702,2.3707,2.3708,2.3714,2.3714,2.3715,2.3717,2.3717,2.3721,2.3721,2.3723,2.3726,2.3727,2.3728,2.3727,2.3735,2.3735,2.3735,2.3735,2.3735,2.3735,0,0,0,0,0,2.3699,2.3701,2.3702,2.3703,2.371,2.3714,2.3715,2.3717,2.3717,2.3718,2.3721,2.3721,2.3728,2.3727,2.3727,2.3729,2.3735,2.3735,2.3735,2.3735,2.3735,2.3735,0,0,0,0,0,0,2.3696,2.3702,2.3703,2.3707,2.371,2.3715,2.3716,2.3717,2.372,2.372,2.3722,2.3723,2.3726,2.3728,2.3727,2.3732,2.3731,2.3732,2.3731,2.3731,2.3731,2.3731,2.3727,0,0,0,0,0,2.3696,2.3699,2.3704,2.3707,2.3709,2.3712,2.3714,2.3716,2.3719,2.372,2.3722,2.3725,2.3728,2.373,2.3732,2.3735,2.3736,2.3737,2.3737,2.3737,2.3737,2.3739,2.374,2.3736,2.3736,2.3736,0,0,2.3695,2.3699,2.3701,2.3706,2.3709,2.3712,2.3713,2.3716,2.3719,2.372,2.3724,2.3726,2.3729,2.3732,2.3734,2.3734,2.3739,2.3737,2.3737,2.3737,2.374,2.374,2.374,2.3736,2.3736,2.3736,0,0,2.3696,2.3699,2.3702,2.3705,2.371,2.3712,2.3713,2.3718,2.3719,2.3723,2.3724,2.3727,2.3732,2.3734,2.3736,2.3739,2.3739,2.3739,2.374,2.3742,2.3743,2.3743,2.3744,2.3744,2.374,2.374,2.374,0,2.3694,2.37,2.3703,2.3707,2.3709,2.3712,2.3715,2.3718,2.3722,2.3724,2.3724,2.373,2.3733,2.3737,2.3738,2.3739,2.374,2.3739,2.3742,2.3743,2.3743,2.3744,2.3744,2.374,2.374,2.374,2.374,0,2.3698,2.3702,2.3703,2.3709,2.3712,2.3715,2.3719,2.3721,2.3723,2.3726,2.3729,2.3733,2.3736,2.3737,2.3739,2.3742,2.3742,2.3742,2.3741,2.3743,2.3744,2.3745,2.374,2.374,2.374,2.374,0,0,2.3695,2.3704,2.3705,2.3708,2.3714,2.3716,2.372,2.3724,2.3726,2.373,2.3733,2.3737,2.3738,2.374,2.3741,2.3743,2.3746,2.3743,2.3743,2.3744,2.375,2.3749,2.375,2.3746,2.3746,2.3746,2.3749,0,2.3697,2.3704,2.3708,2.3713,2.3717,2.372,2.3723,2.3727,2.3729,2.3732,2.3735,2.3738,2.3739,2.374,2.3742,2.3745,2.3747,2.3745,2.3749,2.3749,2.3747,2.375,2.375,2.3752,2.375,2.375,2.375,0,2.3699,2.3704,2.371,2.3716,2.3718,2.372,2.3725,2.3728,2.3733,2.3734,2.3737,2.3739,2.3743,2.3742,2.3747,2.3746,2.3748,2.3749,2.375,2.375,2.3749,2.375,2.3753,2.3754,2.3751,2.3751,2.375,0,2.3697,2.3705,2.371,2.3712,2.3719,2.3721,2.3724,2.3729,2.3731,2.3735,2.3737,2.3741,2.3743,2.3746,2.3749,2.3748,2.3754,2.3753,2.3755,2.3755,2.3756,2.3755,2.3759,2.3757,2.3757,2.3757,2.3757,0,2.3698,2.3702,2.3709,2.3712,2.3716,2.372,2.3724,2.3727,2.3731,2.3735,2.3737,2.374,2.3744,2.3747,2.375,2.3754,2.3754,2.3756,2.3756,2.3755,2.3755,2.3756,2.3756,2.3757,2.3757,2.3757,2.3757,0,2.3697,2.3702,2.3707,2.3714,2.3716,2.3718,2.3724,2.3727,2.373,2.3734,2.3735,2.374,2.3744,2.3748,2.3753,2.3755,2.3759,2.3759,2.3757,2.3758,2.3759,2.3759,2.3763,2.3764,2.3762,2.3762,2.3762,0,2.3697,2.37,2.3708,2.371,2.3714,2.3718,2.3721,2.3726,2.3729,2.3735,2.3737,2.3741,2.3745,2.3752,2.3755,2.3759,2.376,2.3761,2.376,2.376,2.376,2.376,2.376,2.3761,2.3761,2.3761,2.3761,0,2.3697,2.37,2.3704,2.371,2.3714,2.3719,2.3723,2.3725,2.3731,2.3734,2.3739,2.3742,2.3748,2.3752,2.3757,2.3759,2.3761,2.3761,2.3762,2.3761,2.376,2.376,2.3757,2.3761,2.3761,2.3761,2.3761,2.3761,2.3696,2.3699,2.3706,2.3711,2.3715,2.372,2.3723,2.3727,2.3731,2.3737,2.3739,2.3744,2.3749,2.3756,2.3758,2.3762,2.3762,2.3763,2.3763,2.3763,2.3763,2.3759,2.3763,2.3763,2.3763,2.3763,2.3763,0,2.3697,2.3701,2.3706,2.3713,2.3717,2.3719,2.3725,2.3728,2.3733,2.3737,2.3741,2.3747,2.3752,2.3756,2.3761,2.3763,2.3764,2.3764,2.3764,2.3764,2.3763,2.3762,2.3763,2.3763,2.3763,2.3763,2.3763,2.3763,2.3697,2.3703,2.3706,2.3714,2.3718,2.3724,2.3726,2.3731,2.3734,2.3741,2.3745,2.3748,2.3753,2.3758,2.3762,2.3764,2.3765,2.3765,2.3766,2.3764,2.3764,2.3764,2.3763,2.3765,2.3765,2.3768,2.3768,2.3768]}]]